Home > Weather > Fort-de-France > Past weeks

Flag for Martinique Weather for the Past 2 Weeks in Fort-de-France, Martinique

Now
77 °F

Partly cloudy.


Feels Like: 79 °F
Forecast: 76 / 85 °F
Wind: 10 mph from East

Location: Le Lamentin Airport

Current Time: Feb 9, 2016 at 1:59:52 AM

Latest Report: Feb 9, 2016 at 1:00 AM


Visibility: N/A

Pressure: 30.01 "Hg

Humidity: 79%

Dew point: 70 °F

Location of Fort-de-FranceLocation

Historic Weather in Fort-de-France — Graph

°F

Fort-de-France Temperature Yesterday

Maximum temperature yesterday: 88 °F (at 1:00 PM)
Minimum temperature yesterday: 77 °F (at 12:00 AM)
Average temperature yesterday: 80 °F

High & Low Weather Summary for the Past Weeks

 TemperatureHumidityPressure
High88 °F (Feb 5, 12:00 PM)100% (Feb 5, 7:00 AM)30.12 "Hg (Feb 5, 7:00 AM)
Low66 °F (Feb 4, 5:00 AM)49% (Jan 28, 1:00 PM)29.86 "Hg (Feb 3, 3:30 PM)
Average79 °F72%30.01 "Hg
* Reported Jan 25 12:30 AM — Feb 9 12:30 AM, Fort-de-France, Weather by CustomWeather, © 2016

Note: Actual official high and low records may vary slightly from our data, if they occured in-between our weather recording intervals... More about our weather records

Advertising

Fort-de-France Weather History for the Previous 24 Hours

 ConditionsComfort  
Time TempWeatherWind HumidityBarometerVisibility
12:30 AM
Tue, Feb 9
77 °FPassing clouds.10 mph79%30.01 "HgN/A
12:00 AM79 °FPassing clouds.14 mph74%30.01 "HgN/A
11:30 PM
Mon, Feb 8
79 °FPassing clouds.12 mph74%30.04 "HgN/A
11:00 PM79 °FPassing clouds.12 mph74%30.04 "HgN/A
10:30 PM79 °FPartly cloudy.13 mph74%30.04 "HgN/A
10:00 PM79 °FPartly cloudy.10 mph79%30.04 "HgN/A
9:30 PM79 °FPartly cloudy.10 mph74%30.04 "HgN/A
9:00 PM77 °FPassing clouds.8 mph79%30.01 "HgN/A
8:30 PM79 °FPassing clouds.10 mph74%30.01 "HgN/A
8:00 PM79 °FPassing clouds.9 mph74%30.01 "HgN/A
7:30 PM79 °FPassing clouds.10 mph74%30.01 "HgN/A
7:00 PM79 °FPassing clouds.12 mph74%29.98 "HgN/A
6:30 PM79 °FPassing clouds.16 mph74%29.98 "HgN/A
6:00 PM81 °FMore clouds than sun.15 mph70%29.98 "HgN/A
5:30 PM81 °FBroken clouds.18 mph70%29.98 "HgN/A
5:00 PM81 °FBroken clouds.15 mph74%29.98 "HgN/A
4:30 PM82 °FScattered clouds.15 mph70%29.95 "HgN/A
4:00 PM84 °FScattered clouds.20 mph62%29.95 "HgN/A
3:30 PM84 °FBroken clouds.16 mph66%29.95 "HgN/A
3:00 PM84 °FBroken clouds.18 mph62%29.98 "HgN/A
2:30 PM86 °FBroken clouds.18 mph59%29.98 "HgN/A
2:00 PM86 °FScattered clouds.17 mph59%29.98 "HgN/A
1:30 PM88 °FScattered clouds.17 mph55%30.01 "HgN/A
1:00 PM88 °FBroken clouds.17 mph59%30.01 "HgN/A
12:30 PM86 °FBroken clouds.18 mph59%30.04 "HgN/A
12:00 PM84 °FOvercast.17 mph62%30.04 "HgN/A
11:30 AM86 °FPartly sunny.20 mph62%30.04 "HgN/A
11:00 AM86 °FPassing clouds.20 mph59%30.07 "HgN/A
10:30 AM84 °FPartly sunny.17 mph58%30.07 "HgN/A
10:00 AM84 °FPartly sunny.20 mph62%30.07 "HgN/A
9:30 AM82 °FPartly sunny.18 mph66%30.07 "HgN/A
9:00 AM81 °FPartly sunny.16 mph70%30.07 "HgN/A
8:30 AM81 °FMore clouds than sun.14 mph74%30.07 "HgN/A
8:00 AM79 °FPartly sunny.12 mph79%30.04 "HgN/A
7:30 AM77 °FScattered clouds.8 mph83%30.04 "HgN/A
7:00 AM77 °FBroken clouds.8 mph79%30.04 "HgN/A
6:30 AM77 °FPassing clouds.9 mph79%30.01 "HgN/A
6:00 AM77 °FPartly cloudy.9 mph79%30.01 "HgN/A
5:30 AM77 °FPartly cloudy.9 mph79%30.01 "HgN/A
5:00 AM77 °FPassing clouds.7 mph79%30.01 "HgN/A
4:30 AM77 °FPassing clouds.8 mph79%29.98 "HgN/A
4:00 AM77 °FPassing clouds.8 mph79%29.98 "HgN/A
3:30 AM77 °FPartly cloudy.9 mph79%29.98 "HgN/A
3:00 AM77 °FPassing clouds.8 mph79%29.98 "HgN/A
2:30 AM77 °FPassing clouds.10 mph79%30.01 "HgN/A
2:00 AM77 °FPassing clouds.10 mph79%30.01 "HgN/A
1:30 AM77 °FPassing clouds.9 mph83%30.01 "HgN/A
1:00 AM77 °FMostly cloudy.7 mph83%30.01 "HgN/A
Weather by CustomWeather, © 2016

See weather overviewHow to use our weather pages